Location: Malvern Link
(52.1333°N, 2.3000°W)
Time: 00:21:25
(UTC+00:00)

MOZHAYETS 4 - Visible Passes

Search period start: 29 June 2022 00:00
Search period end: 09 July 2022 00:00
Orbit: 660 x 679 km, 98.2° (Epoch: 28 June)

Date Brightness Start Highest point End Pass type
(mag) Time Alt. Az. Time Alt. Az. Time Alt. Az.
29 Jun 9.0 01:34:40 10° SE 01:38:58 40° ENE 01:43:16 10° N visible
30 Jun 10.4 00:32:43 10° E 00:35:03 14° NE 00:37:22 10° NNE visible
30 Jun 7.9 02:06:46 10° SSE 02:11:23 75° ENE 02:16:00 10° NNW visible
01 Jul 9.9 01:03:34 10° ESE 01:07:11 23° ENE 01:10:48 10° N visible
01 Jul 7.9 02:39:24 10° S 02:43:56 58° WSW 02:48:30 10° NNW visible
02 Jul 9.0 01:35:09 10° SE 01:39:27 40° ENE 01:43:46 10° N visible
03 Jul 10.4 00:33:12 10° E 00:35:32 14° NE 00:37:52 10° NNE visible
03 Jul 7.9 02:07:16 10° SSE 02:11:52 75° ENE 02:16:29 10° NNW visible
04 Jul 9.9 01:04:03 10° ESE 01:07:40 23° ENE 01:11:16 10° N visible
04 Jul 7.9 02:39:53 10° S 02:44:25 58° WSW 02:48:59 10° NNW visible
05 Jul 9.0 01:35:38 10° SE 01:39:56 40° ENE 01:44:14 10° N visible
06 Jul 10.4 00:33:40 10° E 00:36:01 14° NE 00:38:20 10° NNE visible
06 Jul 7.9 02:07:45 10° SSE 02:12:20 76° ENE 02:16:57 10° NNW visible
07 Jul 9.9 01:04:31 10° ESE 01:08:09 23° ENE 01:11:45 10° N visible
07 Jul 7.9 02:40:22 10° S 02:44:54 57° WSW 02:49:26 10° NNW visible
08 Jul 9.0 01:36:07 10° SE 01:40:24 40° ENE 01:44:42 10° N visible
